Simultaneous Nadir Overpasses (SNOs) Predictions

Prediction of SNOs between FY3D and METOP-C Satellite Orbit:

Table of predicted SNOs for the next 14.0 days since TLE Epoch: 5/29/2023
Index Date (FY3D) Time (FY3D) Lat,Lon (FY3D) SZA (FY3D ) Date (METOP-C) Time (METOP-C) Lat,Lon (METOP-C) SZA (METOP-C ) Distance(km) Time Diff (sec)
1 06/11/2023 18:59:46 75.40,-109.91 52.27 06/11/2023 19:00:53 75.35,-107.15 52.18 77.68 67
2 06/11/2023 19:50:29 -75.28, 57.78 127.87 06/11/2023 19:51:38 -75.23, 59.80 127.95 57.30 69
3 06/11/2023 20:41:10 75.05,-134.24 51.90 06/11/2023 20:42:22 75.00,-133.54 51.82 21.04 72
4 06/11/2023 21:31:52 -74.93, 33.43 128.24 06/11/2023 21:33:05 -74.92, 33.56 128.26 3.96 73
5 06/11/2023 22:22:37 74.89,-159.15 51.72 06/11/2023 22:23:45 74.88,-159.22 51.70 2.70 68
6 06/11/2023 23:13:23 -74.91, 8.11 128.26 06/11/2023 23:14:27 -74.89, 8.16 128.29 2.48 64
7 06/12/2023 00:04:08 74.87, 175.52 51.70 06/12/2023 00:05:06 74.90, 175.51 51.72 2.76 58
8 06/12/2023 00:54:54 -74.89, -17.22 128.29 06/12/2023 00:55:49 -74.87, -17.25 128.31 2.82 55
9 06/12/2023 01:45:39 74.86, 150.19 51.68 06/12/2023 01:46:28 74.87, 150.10 51.69 3.29 49
10 06/12/2023 02:36:25 -74.88, -42.55 128.31 06/12/2023 02:37:10 -74.89, -42.52 128.30 2.07 45



Historial Predications of SNOs between FY3D and METOP-C
